Lancaster, OH

2:06 PM EST on February 20, 2017 (GMT -0500)
Fairfield County

Weather History for KLHQ - January, 2013

Change the Weather History Date:

Tuesday, January 29, 2013

  Actual Average Record
Temperature  
Mean Temperature 59 °F -  
Max Temperature 68 °F 36 °F 68 °F (1947)
Min Temperature 50 °F 18 °F -15 °F (2014)
Degree Days  
Heating Degree Days 6    
Growing Degree Days 9 (Base 50)    
Moisture  
Dew Point 51 °F    
Average Humidity 79    
Maximum Humidity 96    
Minimum Humidity 54    
Precipitation  
Precipitation 0.02 in - - ()
Sea Level Pressure  
Sea Level Pressure 29.96 in    
Wind  
Wind Speed 8 mph (SSW)    
Max Wind Speed 16 mph    
Max Gust Speed 26 mph    
Visibility 8 miles    
Events Rain    
Averages and records for this station are not official NWS values.
T = Trace of Precipitation, MM = Missing Value Source: NWS Daily Summary

Daily Weather History Graph

Daily Weather History Graph

Search for Another Location

Airport or City:

Trip Planner

Search our weather history database for the weather conditions in past years. The results will help you decide how hot, cold, wet, or windy it might be!

Date:

Astronomy

Jan. 29, 2013 Rise Set
Actual Time 7:41 AM EST 5:47 PM EST
Civil Twilight 7:12 AM EST 6:15 PM EST
Nautical Twilight 6:39 AM EST 6:48 PM EST
Astronomical Twilight 6:08 AM EST 7:20 PM EST
Moon 8:41 PM EST (1/29) 8:37 AM EST (1/29)
Length of Visible Light 11h 03m
Length of Day
10h 06m
Waning Gibbous, 94% of the Moon is Illuminated
Jan 29
Waning Gibbous
Feb 3
Last Quarter
Feb 10
New
Feb 17
First Quarter
Feb 25
Full

Hourly Weather History & Observations

Time (EST) Temp. Dew Point Humidity Pressure Visibility Wind Dir Wind Speed Gust Speed Precip Events Conditions
12:03 AM 51.8 °F 50.0 °F 94% 30.07 in 2.5 mi SW 8.1 mph - 0.00 in Rain Light Rain
12:09 AM 51.8 °F 50.0 °F 94% 30.07 in 1.8 mi SW 6.9 mph - 0.01 in Rain Light Rain
12:17 AM 51.8 °F 50.0 °F 94% 30.06 in 1.5 mi SW 4.6 mph - 0.02 in Rain Light Rain
12:27 AM 51.8 °F 50.0 °F 94% 30.06 in 2.5 mi SW 5.8 mph - 0.02 in Rain Light Rain
12:35 AM 51.8 °F 50.0 °F 94% 30.06 in 3.0 mi SW 5.8 mph - 0.02 in   Overcast
12:53 AM 52.0 °F 50.0 °F 93% 30.06 in 4.0 mi SW 5.8 mph - 0.02 in   Overcast
1:53 AM 51.1 °F 50.0 °F 96% 30.06 in 4.0 mi SSW 4.6 mph - N/A   Overcast
2:35 AM 53.6 °F 50.0 °F 88% 30.05 in 5.0 mi SW 8.1 mph - N/A   Overcast
2:53 AM 53.1 °F 50.0 °F 89% 30.05 in 5.0 mi SW 6.9 mph - N/A   Overcast
3:53 AM 52.0 °F 50.0 °F 93% 30.04 in 6.0 mi South 4.6 mph - N/A   Overcast
4:08 AM 51.8 °F 48.2 °F 88% 30.03 in 6.0 mi South 4.6 mph - N/A   Overcast
4:53 AM 52.0 °F 48.9 °F 89% 30.02 in 6.0 mi SE 3.5 mph - N/A   Overcast
5:53 AM 50.0 °F 48.0 °F 93% 30.02 in 7.0 mi South 5.8 mph - N/A   Partly Cloudy
6:53 AM 52.0 °F 48.0 °F 86% 30.01 in 8.0 mi SSW 8.1 mph - N/A   Clear
7:53 AM 54.0 °F 48.9 °F 83% 30.02 in 8.0 mi SSW 8.1 mph - N/A   Overcast
8:53 AM 55.0 °F 48.9 °F 80% 30.02 in 9.0 mi SW 8.1 mph - N/A   Scattered Clouds
9:28 AM 55.4 °F 50.0 °F 82% 30.00 in 8.0 mi SSW 9.2 mph - N/A   Mostly Cloudy
9:53 AM 57.9 °F 51.1 °F 78% 30.01 in 9.0 mi SW 10.4 mph 18.4 mph N/A   Mostly Cloudy
10:02 AM 57.2 °F 51.8 °F 82% 30.01 in 9.0 mi SW 11.5 mph 20.7 mph N/A   Mostly Cloudy
10:28 AM 57.2 °F 51.8 °F 82% 29.99 in 9.0 mi SSW 10.4 mph - N/A   Mostly Cloudy
10:53 AM 60.1 °F 52.0 °F 75% 29.99 in 9.0 mi SW 13.8 mph 23.0 mph N/A   Overcast
11:01 AM 60.8 °F 53.6 °F 77% 29.99 in 10.0 mi SW 16.1 mph 24.2 mph N/A   Mostly Cloudy
11:53 AM 63.0 °F 54.0 °F 72% 29.96 in 10.0 mi SW 16.1 mph 24.2 mph N/A   Clear
12:53 PM 66.0 °F 54.0 °F 65% 29.92 in 10.0 mi SW 12.7 mph 26.5 mph N/A   Clear
1:53 PM 68.0 °F 53.1 °F 59% 29.89 in 10.0 mi SSW 12.7 mph 23.0 mph N/A   Scattered Clouds
2:53 PM 68.0 °F 53.1 °F 59% 29.88 in 10.0 mi SSW 9.2 mph 19.6 mph N/A   Mostly Cloudy
3:53 PM 68.0 °F 53.1 °F 59% 29.86 in 10.0 mi SSW 9.2 mph 18.4 mph N/A   Clear
4:53 PM 66.9 °F 50.0 °F 54% 29.84 in 10.0 mi SSW 11.5 mph - N/A   Mostly Cloudy
5:53 PM 64.9 °F 50.0 °F 58% 29.83 in 10.0 mi South 9.2 mph - N/A   Clear
6:53 PM 63.0 °F 50.0 °F 63% 29.83 in 10.0 mi South 11.5 mph - N/A   Clear
7:53 PM 63.0 °F 50.0 °F 63% 29.80 in 10.0 mi South 13.8 mph - N/A   Clear
8:53 PM 64.0 °F 52.0 °F 65% 29.78 in 10.0 mi South 16.1 mph - N/A   Clear
9:53 PM 64.0 °F 53.1 °F 67% 29.76 in 10.0 mi SSW 13.8 mph 24.2 mph N/A   Mostly Cloudy
10:53 PM 64.0 °F 54.0 °F 70% 29.73 in 10.0 mi SSW 16.1 mph 26.5 mph N/A   Partly Cloudy
11:53 PM 64.0 °F 54.0 °F 70% 29.69 in 10.0 mi South 15.0 mph 23.0 mph N/A   Clear